Location: Amherst
(42.5000°N, 72.5000°W)
Time: 02:26:15
(UTC-04:00)

ISS - Pass Details

Date: 21 July 2018
Orbit: 402 x 408 km, 51.6° (Epoch: 16 July)

Event Time Altitude Azimuth Distance (km) Brightness Sun altitude
Rises 03:11:07 0° 306° (NW) 2,330 0.1 -19.8°
Reaches altitude 10° 03:13:14 10° 311° (NW) 1,468 -0.9 -19.6°
Maximum altitude 03:16:27 53° 29° (NNE) 507 -3.0 -19.3°
Drops below altitude 10° 03:19:41 10° 108° (ESE) 1,463 -0.8 -18.9°
Sets 03:21:47 0° 113° (ESE) 2,321 0.2 -18.7°
